contact:dominique.lefevre@mio.osupytheas.fr, maurice.libes@osupytheas.fr, didier.mallarino@osupytheas.fr
Project:EMSO http://www.emso-fr.org/EMSO-France
Depth: 2436.0 m
Title:EMSO Ligure Ouest : Data MII capteur CSTAR
DateTime,Latitude,Longitude,Instrument_Serial,Reference_Counts,Signal_Counts,Corrected_Signal_raw_counts,Calculated_Beam_c_inverse_meters,Internal_thermistor_counts
DateTime,Latitude,Longitude,Instrument_Serial,Reference_Counts,Signal_Counts,Corrected_Signal_raw_counts,Calculated_Beam_c_inverse_meters,Internal_thermistor_counts
2022-09-23T00:01:58,42.805,6.029,CST-1368DR,4572,5056,11772,01.130,551
2022-09-23T00:05:00,42.805,6.029,CST-1368DR,4572,5056,11772,01.130,551
2022-09-23T00:08:02,42.805,6.029,CST-1368DR,4571,5057,11777,01.129,551
2022-09-23T00:11:03,42.805,6.029,CST-1368DR,4572,5057,11774,01.130,551
2022-09-23T00:14:05,42.805,6.029,CST-1368DR,4572,5058,11775,01.129,551
2022-09-23T00:17:06,42.805,6.029,CST-1368DR,4572,5059,11778,01.128,551
2022-09-23T00:20:08,42.805,6.029,CST-1368DR,4572,5058,11776,01.129,551
2022-09-23T00:23:09,42.805,6.029,CST-1368DR,4572,5056,11771,01.131,551
2022-09-23T00:26:11,42.805,6.029,CST-1368DR,4572,5055,11768,01.132,551
2022-09-23T00:29:13,42.805,6.029,CST-1368DR,4572,5056,11771,01.131,551
2022-09-23T00:32:14,42.805,6.029,CST-1368DR,4572,5058,11775,01.129,551
2022-09-23T00:35:16,42.805,6.029,CST-1368DR,4572,5059,11778,01.128,551
2022-09-23T00:38:17,42.805,6.029,CST-1368DR,4572,5054,11767,01.132,551
2022-09-23T00:41:19,42.805,6.029,CST-1368DR,4572,5057,11772,01.130,551
2022-09-23T00:44:20,42.805,6.029,CST-1368DR,4572,5051,11760,01.134,551
2022-09-23T00:47:22,42.805,6.029,CST-1368DR,4572,5057,11774,01.130,551
2022-09-23T00:50:24,42.805,6.029,CST-1368DR,4572,5058,11775,01.129,551
2022-09-23T00:53:25,42.805,6.029,CST-1368DR,4572,5058,11775,01.129,551
2022-09-23T00:56:27,42.805,6.029,CST-1368DR,4572,5057,11774,01.130,551
2022-09-23T00:59:28,42.805,6.029,CST-1368DR,4572,5058,11776,01.129,551
2022-09-23T01:02:30,42.805,6.029,CST-1368DR,4572,5057,11774,01.130,551
2022-09-23T01:05:32,42.805,6.029,CST-1368DR,4572,5058,11775,01.129,551
2022-09-23T01:08:33,42.805,6.029,CST-1368DR,4572,5056,11771,01.131,551
2022-09-23T01:11:35,42.805,6.029,CST-1368DR,4572,5057,11773,01.130,551
2022-09-23T01:14:36,42.805,6.029,CST-1368DR,4572,5058,11775,01.129,551
2022-09-23T01:17:38,42.805,6.029,CST-1368DR,4572,5056,11771,01.131,551
2022-09-23T01:20:39,42.805,6.029,CST-1368DR,4572,5056,11770,01.131,551
2022-09-23T01:23:41,42.805,6.029,CST-1368DR,4572,5057,11772,01.130,551
2022-09-23T01:26:43,42.805,6.029,CST-1368DR,4572,5059,11779,01.128,551
2022-09-23T01:29:44,42.805,6.029,CST-1368DR,4572,5058,11776,01.129,551
2022-09-23T01:32:46,42.805,6.029,CST-1368DR,4572,5055,11768,01.132,551
2022-09-23T01:35:47,42.805,6.029,CST-1368DR,4571,5053,11767,01.132,551
2022-09-23T01:38:49,42.805,6.029,CST-1368DR,4571,5054,11769,01.131,551
2022-09-23T01:41:50,42.805,6.029,CST-1368DR,4571,5052,11764,01.133,551
2022-09-23T01:44:52,42.805,6.029,CST-1368DR,4571,5055,11770,01.131,551
2022-09-23T01:47:54,42.805,6.029,CST-1368DR,4572,5061,11782,01.127,551
2022-09-23T01:50:55,42.805,6.029,CST-1368DR,4571,5053,11766,01.132,551
2022-09-23T01:53:57,42.805,6.029,CST-1368DR,4572,5054,11766,01.132,551
2022-09-23T01:56:58,42.805,6.029,CST-1368DR,4571,5043,11742,01.140,551
2022-09-23T02:00:00,42.805,6.029,CST-1368DR,4572,5055,11768,01.132,550
2022-09-23T02:03:02,42.805,6.029,CST-1368DR,4572,5053,11765,01.133,551
2022-09-23T02:06:03,42.805,6.029,CST-1368DR,4572,5057,11774,01.130,551
2022-09-23T02:09:05,42.805,6.029,CST-1368DR,4572,5056,11771,01.131,551
2022-09-23T02:12:06,42.805,6.029,CST-1368DR,4571,5054,11770,01.131,551
2022-09-23T02:15:08,42.805,6.029,CST-1368DR,4572,5053,11765,01.133,551
2022-09-23T02:18:09,42.805,6.029,CST-1368DR,4571,5051,11762,01.134,551
2022-09-23T02:21:11,42.805,6.029,CST-1368DR,4572,5054,11765,01.133,551
2022-09-23T02:24:13,42.805,6.029,CST-1368DR,4572,5056,11772,01.130,551
2022-09-23T02:27:14,42.805,6.029,CST-1368DR,4572,5058,11775,01.129,551
2022-09-23T02:30:16,42.805,6.029,CST-1368DR,4571,5053,11766,01.132,551
2022-09-23T02:33:17,42.805,6.029,CST-1368DR,4571,5054,11770,01.131,551
2022-09-23T02:36:19,42.805,6.029,CST-1368DR,4571,5053,11767,01.132,551
2022-09-23T02:39:21,42.805,6.029,CST-1368DR,4571,5055,11772,01.130,551
2022-09-23T02:42:22,42.805,6.029,CST-1368DR,4571,5054,11768,01.132,551
2022-09-23T02:45:24,42.805,6.029,CST-1368DR,4571,5053,11767,01.132,551
2022-09-23T02:48:25,42.805,6.029,CST-1368DR,4571,5050,11759,01.135,551
2022-09-23T02:51:27,42.805,6.029,CST-1368DR,4571,5054,11769,01.131,551
2022-09-23T02:54:28,42.805,6.029,CST-1368DR,4571,5053,11766,01.132,551
2022-09-23T02:57:30,42.805,6.029,CST-1368DR,4571,5053,11766,01.132,551
2022-09-23T03:00:32,42.805,6.029,CST-1368DR,4571,5053,11766,01.132,551
2022-09-23T03:03:33,42.805,6.029,CST-1368DR,4571,5051,11762,01.134,551
2022-09-23T03:06:35,42.805,6.029,CST-1368DR,4571,5053,11767,01.132,550
2022-09-23T03:09:36,42.805,6.029,CST-1368DR,4571,5056,11772,01.130,551
2022-09-23T03:12:38,42.805,6.029,CST-1368DR,4571,5057,11776,01.129,551
2022-09-23T03:15:39,42.805,6.029,CST-1368DR,4571,5056,11772,01.130,551
2022-09-23T03:18:41,42.805,6.029,CST-1368DR,4571,5056,11773,01.130,551
2022-09-23T03:21:43,42.805,6.029,CST-1368DR,4571,5056,11774,01.130,551
2022-09-23T03:24:44,42.805,6.029,CST-1368DR,4571,5059,11780,01.128,551
2022-09-23T03:27:46,42.805,6.029,CST-1368DR,4571,5058,11779,01.128,551
2022-09-23T03:30:47,42.805,6.029,CST-1368DR,4571,5058,11779,01.128,551
2022-09-23T03:33:49,42.805,6.029,CST-1368DR,4571,5060,11782,01.127,550
2022-09-23T03:36:50,42.805,6.029,CST-1368DR,4571,5058,11778,01.128,551
2022-09-23T03:39:52,42.805,6.029,CST-1368DR,4571,5059,11781,01.127,551
2022-09-23T03:42:54,42.805,6.029,CST-1368DR,4571,5060,11782,01.127,551
2022-09-23T03:45:55,42.805,6.029,CST-1368DR,4571,5060,11782,01.127,551
2022-09-23T03:48:57,42.805,6.029,CST-1368DR,4571,5060,11784,01.126,551
2022-09-23T03:51:58,42.805,6.029,CST-1368DR,4571,5058,11777,01.129,551
2022-09-23T03:55:00,42.805,6.029,CST-1368DR,4571,5060,11782,01.127,551
2022-09-23T03:58:02,42.805,6.029,CST-1368DR,4571,5057,11775,01.129,551
2022-09-23T04:01:03,42.805,6.029,CST-1368DR,4571,5057,11775,01.129,551
2022-09-23T04:04:05,42.805,6.029,CST-1368DR,4571,5059,11781,01.127,551
2022-09-23T04:07:06,42.805,6.029,CST-1368DR,4571,5058,11779,01.128,551
2022-09-23T04:10:08,42.805,6.029,CST-1368DR,4571,5060,11782,01.127,551
2022-09-23T04:13:09,42.805,6.029,CST-1368DR,4571,5060,11783,01.127,551
2022-09-23T04:16:11,42.805,6.029,CST-1368DR,4571,5060,11783,01.127,551
2022-09-23T04:19:13,42.805,6.029,CST-1368DR,4571,5060,11782,01.127,551
2022-09-23T04:22:14,42.805,6.029,CST-1368DR,4571,5060,11783,01.127,550
2022-09-23T04:25:16,42.805,6.029,CST-1368DR,4572,5060,11781,01.127,551
2022-09-23T04:28:17,42.805,6.029,CST-1368DR,4572,5060,11781,01.127,551
2022-09-23T04:31:19,42.805,6.029,CST-1368DR,4572,5060,11780,01.128,551
2022-09-23T04:34:20,42.805,6.029,CST-1368DR,4572,5061,11782,01.127,551
2022-09-23T04:37:22,42.805,6.029,CST-1368DR,4572,5058,11776,01.129,551
2022-09-23T04:40:24,42.805,6.029,CST-1368DR,4572,5060,11781,01.127,551
2022-09-23T04:43:25,42.805,6.029,CST-1368DR,4572,5060,11781,01.127,551
2022-09-23T04:46:27,42.805,6.029,CST-1368DR,4572,5059,11779,01.128,551
2022-09-23T04:49:28,42.805,6.029,CST-1368DR,4572,5059,11779,01.128,551
2022-09-23T04:52:30,42.805,6.029,CST-1368DR,4572,5059,11778,01.128,551
2022-09-23T04:55:32,42.805,6.029,CST-1368DR,4572,5058,11776,01.129,551
2022-09-23T04:58:33,42.805,6.029,CST-1368DR,4572,5057,11773,01.130,551
2022-09-23T05:01:35,42.805,6.029,CST-1368DR,4572,5058,11775,01.129,551
2022-09-23T05:04:36,42.805,6.029,CST-1368DR,4572,5057,11773,01.130,551
2022-09-23T05:07:38,42.805,6.029,CST-1368DR,4572,5057,11774,01.130,551
2022-09-23T05:10:39,42.805,6.029,CST-1368DR,4572,5058,11775,01.129,550
2022-09-23T05:13:41,42.805,6.029,CST-1368DR,4572,5057,11774,01.130,551
2022-09-23T05:16:43,42.805,6.029,CST-1368DR,4572,5058,11775,01.129,551
2022-09-23T05:19:44,42.805,6.029,CST-1368DR,4572,5056,11772,01.130,551
2022-09-23T05:22:46,42.805,6.029,CST-1368DR,4572,5057,11774,01.130,551
2022-09-23T05:25:47,42.805,6.029,CST-1368DR,4572,5058,11775,01.129,551
2022-09-23T05:28:49,42.805,6.029,CST-1368DR,4572,5058,11775,01.129,551
2022-09-23T05:31:50,42.805,6.029,CST-1368DR,4572,5058,11775,01.129,551
2022-09-23T05:34:52,42.805,6.029,CST-1368DR,4572,5058,11775,01.129,551
2022-09-23T05:37:54,42.805,6.029,CST-1368DR,4572,5058,11776,01.129,551
2022-09-23T05:40:55,42.805,6.029,CST-1368DR,4572,5056,11771,01.131,551
2022-09-23T05:43:57,42.805,6.029,CST-1368DR,4572,5056,11770,01.131,551
2022-09-23T05:46:58,42.805,6.029,CST-1368DR,4572,5057,11772,01.130,551
2022-09-23T05:50:00,42.805,6.029,CST-1368DR,4572,5058,11776,01.129,551
2022-09-23T05:53:02,42.805,6.029,CST-1368DR,4572,5058,11776,01.129,551
2022-09-23T05:56:03,42.805,6.029,CST-1368DR,4572,5059,11778,01.128,551
2022-09-23T05:59:05,42.805,6.029,CST-1368DR,4572,5058,11775,01.129,551
2022-09-23T06:02:06,42.805,6.029,CST-1368DR,4572,5059,11778,01.128,551
2022-09-23T06:05:08,42.805,6.029,CST-1368DR,4572,5058,11776,01.129,551
2022-09-23T06:08:09,42.805,6.029,CST-1368DR,4572,5058,11775,01.129,551
2022-09-23T06:11:11,42.805,6.029,CST-1368DR,4572,5058,11776,01.129,551
2022-09-23T06:14:13,42.805,6.029,CST-1368DR,4572,5058,11775,01.129,551
2022-09-23T06:17:14,42.805,6.029,CST-1368DR,4572,5058,11776,01.129,551
2022-09-23T06:20:16,42.805,6.029,CST-1368DR,4572,5059,11778,01.128,551
2022-09-23T06:23:17,42.805,6.029,CST-1368DR,4572,5060,11779,01.128,551
2022-09-23T06:26:19,42.805,6.029,CST-1368DR,4572,5058,11775,01.129,551
2022-09-23T06:29:20,42.805,6.029,CST-1368DR,4572,5058,11776,01.129,551
2022-09-23T06:32:22,42.805,6.029,CST-1368DR,4572,5062,11785,01.126,551
2022-09-23T06:35:24,42.805,6.029,CST-1368DR,4572,5067,11796,01.122,551
2022-09-23T06:38:25,42.805,6.029,CST-1368DR,4572,5064,11790,01.124,551
2022-09-23T06:41:27,42.805,6.029,CST-1368DR,4572,5063,11786,01.126,551
2022-09-23T06:44:28,42.805,6.029,CST-1368DR,4572,5069,11802,01.120,551
2022-09-23T06:47:30,42.805,6.029,CST-1368DR,4572,5078,11821,01.114,551
2022-09-23T06:50:32,42.805,6.029,CST-1368DR,4572,5079,11825,01.112,551
2022-09-23T06:53:33,42.805,6.029,CST-1368DR,4572,5071,11807,01.118,551
2022-09-23T06:56:35,42.805,6.029,CST-1368DR,4572,5065,11792,01.123,551
2022-09-23T06:59:36,42.805,6.029,CST-1368DR,4572,5062,11785,01.126,551
2022-09-23T07:02:38,42.805,6.029,CST-1368DR,4572,5061,11782,01.127,551
2022-09-23T07:05:39,42.805,6.029,CST-1368DR,4571,5058,11777,01.129,551
2022-09-23T07:08:41,42.805,6.029,CST-1368DR,4572,5060,11779,01.128,551
2022-09-23T07:11:43,42.805,6.029,CST-1368DR,4571,5058,11779,01.128,551
2022-09-23T07:14:44,42.805,6.029,CST-1368DR,4571,5058,11778,01.128,551
2022-09-23T07:17:46,42.805,6.029,CST-1368DR,4571,5058,11779,01.128,551
2022-09-23T07:20:47,42.805,6.029,CST-1368DR,4571,5058,11778,01.128,551
2022-09-23T07:23:49,42.805,6.029,CST-1368DR,4571,5058,11777,01.129,551
2022-09-23T07:26:51,42.805,6.029,CST-1368DR,4571,5058,11777,01.129,551
2022-09-23T07:29:52,42.805,6.029,CST-1368DR,4571,5056,11774,01.130,551
2022-09-23T07:32:54,42.805,6.029,CST-1368DR,4571,5057,11775,01.129,551
2022-09-23T07:35:55,42.805,6.029,CST-1368DR,4571,5056,11773,01.130,551
2022-09-23T07:38:57,42.805,6.029,CST-1368DR,4571,5054,11770,01.131,551
2022-09-23T07:41:58,42.805,6.029,CST-1368DR,4571,5056,11774,01.130,551
2022-09-23T07:45:00,42.805,6.029,CST-1368DR,4571,5056,11773,01.130,551
2022-09-23T07:48:02,42.805,6.029,CST-1368DR,4571,5054,11770,01.131,551
2022-09-23T07:51:03,42.805,6.029,CST-1368DR,4571,5056,11773,01.130,551
2022-09-23T07:54:05,42.805,6.029,CST-1368DR,4571,5055,11772,01.130,551
2022-09-23T07:57:06,42.805,6.029,CST-1368DR,4571,5057,11775,01.129,551
2022-09-23T08:00:08,42.805,6.029,CST-1368DR,4571,5055,11771,01.131,551
2022-09-23T08:03:09,42.805,6.029,CST-1368DR,4571,5056,11772,01.130,551
2022-09-23T08:06:11,42.805,6.029,CST-1368DR,4571,5057,11775,01.129,551
2022-09-23T08:09:13,42.805,6.029,CST-1368DR,4571,5057,11777,01.129,551
2022-09-23T08:12:14,42.805,6.029,CST-1368DR,4571,5054,11769,01.131,551
2022-09-23T08:15:16,42.805,6.029,CST-1368DR,4571,5055,11772,01.130,551
2022-09-23T08:18:17,42.805,6.029,CST-1368DR,4571,5057,11775,01.129,551
2022-09-23T08:21:19,42.805,6.029,CST-1368DR,4571,5057,11775,01.129,551
2022-09-23T08:24:21,42.805,6.029,CST-1368DR,4571,5057,11775,01.129,551
2022-09-23T08:27:22,42.805,6.029,CST-1368DR,4571,5055,11772,01.130,551
2022-09-23T08:30:24,42.805,6.029,CST-1368DR,4571,5056,11774,01.130,551
2022-09-23T08:33:25,42.805,6.029,CST-1368DR,4571,5056,11774,01.130,551
2022-09-23T08:36:27,42.805,6.029,CST-1368DR,4571,5055,11772,01.130,551
2022-09-23T08:39:28,42.805,6.029,CST-1368DR,4571,5057,11775,01.129,551
2022-09-23T08:42:30,42.805,6.029,CST-1368DR,4571,5056,11772,01.130,551
2022-09-23T08:45:32,42.805,6.029,CST-1368DR,4571,5055,11770,01.131,551
2022-09-23T08:48:33,42.805,6.029,CST-1368DR,4571,5057,11775,01.129,551
2022-09-23T08:51:35,42.805,6.029,CST-1368DR,4571,5057,11775,01.129,551
2022-09-23T08:54:36,42.805,6.029,CST-1368DR,4571,5056,11774,01.130,551
2022-09-23T08:57:38,42.805,6.029,CST-1368DR,4571,5056,11774,01.130,551
2022-09-23T09:00:40,42.805,6.029,CST-1368DR,4572,5055,11769,01.131,551
2022-09-23T09:03:41,42.805,6.029,CST-1368DR,4571,5055,11771,01.131,551
2022-09-23T09:06:43,42.805,6.029,CST-1368DR,4571,5055,11771,01.131,551
2022-09-23T09:09:44,42.805,6.029,CST-1368DR,4572,5055,11768,01.132,551
2022-09-23T09:12:46,42.805,6.029,CST-1368DR,4572,5056,11771,01.131,551
2022-09-23T09:15:47,42.805,6.029,CST-1368DR,4571,5056,11774,01.130,551
2022-09-23T09:18:49,42.805,6.029,CST-1368DR,4572,5055,11769,01.131,551
2022-09-23T09:21:51,42.805,6.029,CST-1368DR,4571,5053,11767,01.132,551
2022-09-23T09:24:52,42.805,6.029,CST-1368DR,4571,5056,11774,01.130,551
2022-09-23T09:27:54,42.805,6.029,CST-1368DR,4571,5056,11774,01.130,551
2022-09-23T09:30:55,42.805,6.029,CST-1368DR,4571,5056,11774,01.130,551
2022-09-23T09:33:57,42.805,6.029,CST-1368DR,4571,5055,11772,01.130,551
2022-09-23T09:36:58,42.805,6.029,CST-1368DR,4571,5057,11775,01.129,551
2022-09-23T09:40:00,42.805,6.029,CST-1368DR,4571,5057,11776,01.129,551
2022-09-23T09:43:02,42.805,6.029,CST-1368DR,4571,5057,11777,01.129,551
2022-09-23T09:46:03,42.805,6.029,CST-1368DR,4571,5056,11774,01.130,551
2022-09-23T09:49:05,42.805,6.029,CST-1368DR,4571,5057,11775,01.129,551
2022-09-23T09:52:06,42.805,6.029,CST-1368DR,4571,5057,11775,01.129,551
2022-09-23T09:55:08,42.805,6.029,CST-1368DR,4571,5054,11769,01.131,551
2022-09-23T09:58:10,42.805,6.029,CST-1368DR,4571,5056,11773,01.130,551
2022-09-23T10:01:11,42.805,6.029,CST-1368DR,4571,5057,11775,01.129,551
2022-09-23T10:04:13,42.805,6.029,CST-1368DR,4571,5057,11775,01.129,551
2022-09-23T10:07:14,42.805,6.029,CST-1368DR,4571,5056,11774,01.130,551
2022-09-23T10:10:16,42.805,6.029,CST-1368DR,4572,5056,11771,01.131,551
2022-09-23T10:13:17,42.805,6.029,CST-1368DR,4571,5056,11774,01.130,551
2022-09-23T10:16:19,42.805,6.029,CST-1368DR,4571,5057,11776,01.129,551
2022-09-23T10:19:21,42.805,6.029,CST-1368DR,4571,5055,11770,01.131,551
2022-09-23T10:22:22,42.805,6.029,CST-1368DR,4571,5056,11774,01.130,551
2022-09-23T10:25:24,42.805,6.029,CST-1368DR,4571,5057,11775,01.129,551
2022-09-23T10:28:25,42.805,6.029,CST-1368DR,4571,5057,11776,01.129,551
2022-09-23T10:31:27,42.805,6.029,CST-1368DR,4571,5056,11773,01.130,551
2022-09-23T10:34:28,42.805,6.029,CST-1368DR,4571,5057,11775,01.129,551
2022-09-23T10:37:30,42.805,6.029,CST-1368DR,4571,5057,11776,01.129,551
2022-09-23T10:40:32,42.805,6.029,CST-1368DR,4571,5056,11774,01.130,551
2022-09-23T10:43:33,42.805,6.029,CST-1368DR,4571,5054,11768,01.132,551
2022-09-23T10:46:35,42.805,6.029,CST-1368DR,4571,5055,11772,01.130,551
2022-09-23T10:49:36,42.805,6.029,CST-1368DR,4571,5056,11774,01.130,551
2022-09-23T10:52:38,42.805,6.029,CST-1368DR,4571,5054,11769,01.131,551
2022-09-23T10:55:40,42.805,6.029,CST-1368DR,4571,5056,11772,01.130,551
2022-09-23T10:58:41,42.805,6.029,CST-1368DR,4571,5056,11774,01.130,551
2022-09-23T11:01:43,42.805,6.029,CST-1368DR,4571,5055,11772,01.130,551
2022-09-23T11:04:44,42.805,6.029,CST-1368DR,4571,5054,11768,01.132,551
2022-09-23T11:07:46,42.805,6.029,CST-1368DR,4571,5054,11769,01.131,551
2022-09-23T11:10:47,42.805,6.029,CST-1368DR,4571,5056,11773,01.130,551
2022-09-23T11:13:49,42.805,6.029,CST-1368DR,4572,5056,11772,01.130,551
2022-09-23T11:16:51,42.805,6.029,CST-1368DR,4571,5056,11774,01.130,551
2022-09-23T11:19:52,42.805,6.029,CST-1368DR,4571,5054,11770,01.131,551
2022-09-23T11:22:54,42.805,6.029,CST-1368DR,4571,5056,11772,01.130,551
2022-09-23T11:25:55,42.805,6.029,CST-1368DR,4571,5056,11772,01.130,551
2022-09-23T11:28:57,42.805,6.029,CST-1368DR,4571,5056,11772,01.130,551
2022-09-23T11:31:59,42.805,6.029,CST-1368DR,4572,5055,11768,01.132,551
2022-09-23T11:35:00,42.805,6.029,CST-1368DR,4571,5055,11770,01.131,551
2022-09-23T11:38:02,42.805,6.029,CST-1368DR,4571,5056,11774,01.130,551
2022-09-23T11:41:03,42.805,6.029,CST-1368DR,4571,5056,11773,01.130,551
2022-09-23T11:44:05,42.805,6.029,CST-1368DR,4572,5056,11772,01.130,551
2022-09-23T11:47:06,42.805,6.029,CST-1368DR,4572,5056,11771,01.131,551
2022-09-23T11:50:08,42.805,6.029,CST-1368DR,4572,5055,11768,01.132,551
2022-09-23T11:53:10,42.805,6.029,CST-1368DR,4571,5054,11769,01.131,551
2022-09-23T11:56:11,42.805,6.029,CST-1368DR,4572,5054,11767,01.132,551
2022-09-23T11:59:13,42.805,6.029,CST-1368DR,4572,5055,11769,01.131,551
2022-09-23T12:02:14,42.805,6.029,CST-1368DR,4572,5052,11762,01.134,551
2022-09-23T12:05:16,42.805,6.029,CST-1368DR,4571,5053,11767,01.132,551
2022-09-23T12:08:17,42.805,6.029,CST-1368DR,4571,5056,11772,01.130,551
2022-09-23T12:11:19,42.805,6.029,CST-1368DR,4572,5056,11772,01.130,551
2022-09-23T12:14:21,42.805,6.029,CST-1368DR,4571,5055,11772,01.130,551
2022-09-23T12:17:22,42.805,6.029,CST-1368DR,4571,5055,11772,01.130,551
2022-09-23T12:20:24,42.805,6.029,CST-1368DR,4572,5056,11770,01.131,551
2022-09-23T12:23:25,42.805,6.029,CST-1368DR,4572,5055,11768,01.132,551
2022-09-23T12:26:27,42.805,6.029,CST-1368DR,4572,5056,11771,01.131,551
2022-09-23T12:29:29,42.805,6.029,CST-1368DR,4571,5055,11770,01.131,551
2022-09-23T12:32:30,42.805,6.029,CST-1368DR,4571,5056,11774,01.130,551
2022-09-23T12:35:32,42.805,6.029,CST-1368DR,4571,5055,11770,01.131,551
2022-09-23T12:38:33,42.805,6.029,CST-1368DR,4571,5055,11770,01.131,551
2022-09-23T12:41:35,42.805,6.029,CST-1368DR,4571,5055,11772,01.130,551
2022-09-23T12:44:36,42.805,6.029,CST-1368DR,4572,5056,11771,01.131,551
2022-09-23T12:47:38,42.805,6.029,CST-1368DR,4571,5054,11769,01.131,551
2022-09-23T12:50:40,42.805,6.029,CST-1368DR,4571,5055,11770,01.131,551
2022-09-23T12:53:41,42.805,6.029,CST-1368DR,4571,5055,11770,01.131,551
2022-09-23T12:56:43,42.805,6.029,CST-1368DR,4572,5055,11768,01.132,551
2022-09-23T12:59:44,42.805,6.029,CST-1368DR,4572,5056,11770,01.131,551
2022-09-23T13:02:46,42.805,6.029,CST-1368DR,4572,5056,11771,01.131,551
2022-09-23T13:05:47,42.805,6.029,CST-1368DR,4572,5056,11770,01.131,551
2022-09-23T13:08:49,42.805,6.029,CST-1368DR,4572,5056,11771,01.131,551
2022-09-23T13:11:51,42.805,6.029,CST-1368DR,4572,5056,11770,01.131,551
2022-09-23T13:14:52,42.805,6.029,CST-1368DR,4571,5054,11769,01.131,551
2022-09-23T13:17:54,42.805,6.029,CST-1368DR,4571,5053,11767,01.132,551
2022-09-23T13:20:55,42.805,6.029,CST-1368DR,4571,5054,11769,01.131,551
2022-09-23T13:23:57,42.805,6.029,CST-1368DR,4571,5056,11772,01.130,551
2022-09-23T13:26:59,42.805,6.029,CST-1368DR,4571,5055,11770,01.131,551
2022-09-23T13:30:00,42.805,6.029,CST-1368DR,4572,5056,11770,01.131,551
2022-09-23T13:33:02,42.805,6.029,CST-1368DR,4571,5056,11773,01.130,551
2022-09-23T13:36:03,42.805,6.029,CST-1368DR,4571,5056,11774,01.130,551
2022-09-23T13:39:05,42.805,6.029,CST-1368DR,4571,5056,11774,01.130,551
2022-09-23T13:42:06,42.805,6.029,CST-1368DR,4572,5057,11773,01.130,551
2022-09-23T13:45:08,42.805,6.029,CST-1368DR,4572,5057,11774,01.130,551
2022-09-23T13:48:10,42.805,6.029,CST-1368DR,4571,5057,11775,01.129,551
2022-09-23T13:51:11,42.805,6.029,CST-1368DR,4571,5057,11776,01.129,551
2022-09-23T13:54:13,42.805,6.029,CST-1368DR,4572,5057,11773,01.130,551
2022-09-23T13:57:14,42.805,6.029,CST-1368DR,4571,5057,11776,01.129,551
2022-09-23T14:00:16,42.805,6.029,CST-1368DR,4571,5056,11774,01.130,551
2022-09-23T14:03:17,42.805,6.029,CST-1368DR,4571,5055,11771,01.131,551
2022-09-23T14:06:19,42.805,6.029,CST-1368DR,4571,5055,11772,01.130,551
2022-09-23T14:09:21,42.805,6.029,CST-1368DR,4571,5056,11772,01.130,551
2022-09-23T14:12:22,42.805,6.029,CST-1368DR,4571,5054,11770,01.131,551
2022-09-23T14:15:24,42.805,6.029,CST-1368DR,4571,5056,11774,01.130,551
2022-09-23T14:18:25,42.805,6.029,CST-1368DR,4571,5054,11768,01.132,551
2022-09-23T14:21:27,42.805,6.029,CST-1368DR,4571,5051,11762,01.134,551
2022-09-23T14:24:29,42.805,6.029,CST-1368DR,4571,5050,11759,01.135,551
2022-09-23T14:27:30,42.805,6.029,CST-1368DR,4571,5050,11760,01.134,551
2022-09-23T14:30:32,42.805,6.029,CST-1368DR,4571,5054,11768,01.132,551
2022-09-23T14:33:33,42.805,6.029,CST-1368DR,4571,5034,11722,01.147,551
2022-09-23T14:36:35,42.805,6.029,CST-1368DR,4571,5051,11761,01.134,551
2022-09-23T14:39:36,42.805,6.029,CST-1368DR,4571,5054,11768,01.132,551
2022-09-23T14:42:38,42.805,6.029,CST-1368DR,4571,5054,11768,01.132,551
2022-09-23T14:45:40,42.805,6.029,CST-1368DR,4571,5053,11767,01.132,551
2022-09-23T14:48:41,42.805,6.029,CST-1368DR,4571,5052,11765,01.133,551
2022-09-23T14:51:43,42.805,6.029,CST-1368DR,4571,5053,11767,01.132,551
2022-09-23T14:54:44,42.805,6.029,CST-1368DR,4571,5053,11766,01.132,551
2022-09-23T14:57:46,42.805,6.029,CST-1368DR,4571,5053,11766,01.132,551
2022-09-23T15:00:47,42.805,6.029,CST-1368DR,4571,5051,11762,01.134,551
2022-09-23T15:03:49,42.805,6.029,CST-1368DR,4571,5051,11763,01.133,551
2022-09-23T15:06:51,42.805,6.029,CST-1368DR,4571,5051,11763,01.133,551
2022-09-23T15:09:52,42.805,6.029,CST-1368DR,4571,5052,11763,01.133,551
2022-09-23T15:12:54,42.805,6.029,CST-1368DR,4571,5050,11760,01.134,551
2022-09-23T15:15:55,42.805,6.029,CST-1368DR,4571,5051,11762,01.134,551
2022-09-23T15:18:57,42.805,6.029,CST-1368DR,4571,5051,11761,01.134,551
2022-09-23T15:21:59,42.805,6.029,CST-1368DR,4571,5049,11757,01.135,551
2022-09-23T15:25:00,42.805,6.029,CST-1368DR,4571,5049,11757,01.135,551
2022-09-23T15:28:02,42.805,6.029,CST-1368DR,4571,5050,11760,01.134,551
2022-09-23T15:31:03,42.805,6.029,CST-1368DR,4571,5050,11760,01.134,551
2022-09-23T15:34:05,42.805,6.029,CST-1368DR,4571,5050,11760,01.134,551
2022-09-23T15:37:06,42.805,6.029,CST-1368DR,4571,5051,11761,01.134,551
2022-09-23T15:40:08,42.805,6.029,CST-1368DR,4571,5049,11758,01.135,551
2022-09-23T15:43:10,42.805,6.029,CST-1368DR,4571,5049,11758,01.135,551
2022-09-23T15:46:11,42.805,6.029,CST-1368DR,4571,5052,11765,01.133,551
2022-09-23T15:49:13,42.805,6.029,CST-1368DR,4571,5051,11761,01.134,551
2022-09-23T15:52:14,42.805,6.029,CST-1368DR,4571,5052,11765,01.133,551
2022-09-23T15:55:16,42.805,6.029,CST-1368DR,4571,5053,11767,01.132,551
2022-09-23T15:58:17,42.805,6.029,CST-1368DR,4571,5052,11763,01.133,551
2022-09-23T16:01:19,42.805,6.029,CST-1368DR,4571,5051,11761,01.134,551
2022-09-23T16:04:21,42.805,6.029,CST-1368DR,4571,5051,11761,01.134,551
2022-09-23T16:07:22,42.805,6.029,CST-1368DR,4571,5053,11766,01.132,551
2022-09-23T16:10:24,42.805,6.029,CST-1368DR,4571,5046,11750,01.138,551
2022-09-23T16:13:25,42.805,6.029,CST-1368DR,4571,5050,11760,01.134,551
2022-09-23T16:16:27,42.805,6.029,CST-1368DR,4571,5050,11759,01.135,551
2022-09-23T16:19:29,42.805,6.029,CST-1368DR,4571,5050,11759,01.135,551
2022-09-23T16:22:30,42.805,6.029,CST-1368DR,4571,5055,11772,01.130,551
2022-09-23T16:25:32,42.805,6.029,CST-1368DR,4571,5053,11767,01.132,551
2022-09-23T16:28:33,42.805,6.029,CST-1368DR,4571,5049,11758,01.135,551
2022-09-23T16:31:35,42.805,6.029,CST-1368DR,4571,5053,11767,01.132,551
2022-09-23T16:34:36,42.805,6.029,CST-1368DR,4571,5053,11766,01.132,551
2022-09-23T16:37:38,42.805,6.029,CST-1368DR,4571,5051,11763,01.133,551